| time (UTC) | temp C | wind direction | speed KPH | gust KPH | rain 1hr cm | rain 24hr cm | rain mn cm | humidity % | barometer mb |
| 20260510153707 | 23 | 61 | 4.8 | 14.5 | 0.00 | 3.61 | 0.00 | 88 | 1017.7 |
| 20260510153206 | 23 | 5 | 3.2 | 8.0 | 0.00 | 3.61 | 0.00 | 89 | 1017.6 |
| 20260510152705 | 22 | 76 | 3.2 | 8.0 | 0.00 | 3.61 | 0.00 | 89 | 1017.6 |
| 20260510152205 | 22 | 41 | 3.2 | 8.0 | 0.00 | 3.61 | 0.00 | 89 | 1017.6 |
| 20260510151703 | 22 | 77 | 3.2 | 8.0 | 0.00 | 3.61 | 0.00 | 90 | 1017.7 |
| 20260510151203 | 21 | 146 | 3.2 | 6.4 | 0.00 | 3.61 | 0.00 | 90 | 1017.7 |
| 20260510150703 | 21 | 5 | 3.2 | 8.0 | 0.00 | 3.61 | 0.00 | 89 | 1017.9 |
| 20260510150202 | 21 | 44 | 4.8 | 11.3 | 0.00 | 3.61 | 0.00 | 90 | 1017.9 |
| 20260510145701 | 21 | 85 | 4.8 | 11.3 | 0.00 | 3.61 | 0.00 | 90 | 1018.0 |
| 20260510145200 | 21 | 65 | 4.8 | 11.3 | 0.00 | 3.61 | 0.00 | 91 | 1017.9 |
| 20260510144653 | 21 | 78 | 4.8 | 11.3 | 0.00 | 3.61 | 0.00 | 92 | 1017.9 |
| 20260510144152 | 21 | 23 | 3.2 | 9.7 | 0.00 | 3.61 | 0.00 | 91 | 1017.8 |
| 20260510143653 | 21 | 92 | 4.8 | 12.9 | 0.00 | 3.61 | 0.00 | 93 | 1017.7 |
| 20260510143152 | 21 | 56 | 6.4 | 14.5 | 0.00 | 3.61 | 0.00 | 93 | 1017.7 |
| 20260510142652 | 21 | 78 | 6.4 | 14.5 | 0.00 | 3.61 | 0.00 | 93 | 1017.8 |
| 20260510142155 | 20 | 75 | 4.8 | 8.0 | 0.00 | 3.61 | 0.00 | 94 | 1017.9 |
| 20260510141652 | 20 | 24 | 3.2 | 8.0 | 0.00 | 3.61 | 0.00 | 93 | 1017.9 |
| 20260510141153 | 20 | 9 | 3.2 | 11.3 | 0.00 | 3.61 | 0.00 | 94 | 1017.9 |
| 20260510140653 | 20 | 59 | 3.2 | 11.3 | 0.00 | 3.61 | 0.00 | 94 | 1017.9 |
| 20260510140148 | 20 | 47 | 3.2 | 8.0 | 0.00 | 3.61 | 0.00 | 95 | 1017.7 |
| 20260510135648 | 20 | 53 | 3.2 | 8.0 | 0.00 | 3.61 | 0.00 | 95 | 1017.6 |
| 20260510135148 | 20 | 44 | 3.2 | 9.7 | 0.00 | 3.61 | 0.00 | 96 | 1017.4 |
| 20260510134647 | 20 | 82 | 4.8 | 9.7 | 0.00 | 3.61 | 0.00 | 96 | 1017.5 |
| 20260510134146 | 20 | 82 | 4.8 | 11.3 | 0.00 | 3.61 | 0.00 | 96 | 1017.5 |
| 20260510133647 | 20 | 82 | 4.8 | 11.3 | 0.00 | 3.61 | 0.00 | 96 | 1017.4 |
| 20260510133142 | 19 | 72 | 4.8 | 12.9 | 0.00 | 3.61 | 0.00 | 96 | 1017.5 |
| 20260510132644 | 19 | 27 | 4.8 | 12.9 | 0.00 | 3.61 | 0.00 | 96 | 1017.3 |
| 20260510132143 | 19 | 80 | 4.8 | 8.0 | 0.00 | 3.61 | 0.00 | 96 | 1017.2 |
| 20260510131642 | 19 | 79 | 4.8 | 8.0 | 0.00 | 3.61 | 0.00 | 96 | 1016.9 |
| 20260510131144 | 19 | 65 | 4.8 | 8.0 | 0.00 | 3.63 | 0.00 | 96 | 1016.9 |
| 20260510130643 | 19 | 74 | 3.2 | 8.0 | 0.00 | 3.63 | 0.00 | 96 | 1016.7 |
| 20260510130138 | 19 | 82 | 3.2 | 9.7 | 0.00 | 3.63 | 0.00 | 96 | 1016.8 |
| 20260510125639 | 19 | 69 | 3.2 | 9.7 | 0.00 | 3.66 | 0.00 | 96 | 1016.8 |
| 20260510125139 | 19 | 30 | 3.2 | 11.3 | 0.00 | 3.71 | 0.00 | 96 | 1016.8 |
| 20260510124644 | 18 | 78 | 3.2 | 8.0 | 0.00 | 3.73 | 0.00 | 96 | 1016.7 |
| 20260510124639 | 19 | 76 | 3.2 | 11.3 | 0.00 | 3.73 | 0.00 | 96 | 1016.7 |
| 20260510123637 | 18 | 70 | 3.2 | 8.0 | 0.00 | 3.76 | 0.00 | 96 | 1016.6 |
| 20260510123136 | 18 | 75 | 3.2 | 6.4 | 0.00 | 3.76 | 0.00 | 96 | 1016.6 |
| 20260510122636 | 18 | 22 | 3.2 | 6.4 | 0.00 | 3.91 | 0.00 | 96 | 1016.4 |
| 20260510122134 | 18 | 76 | 3.2 | 6.4 | 0.00 | 3.94 | 0.00 | 96 | 1016.4 |
| 20260510121636 | 18 | 88 | 3.2 | 6.4 | 0.00 | 3.99 | 0.00 | 96 | 1016.4 |
| 20260510121134 | 18 | 63 | 3.2 | 6.4 | 0.00 | 4.01 | 0.00 | 96 | 1016.3 |
| 20260510120634 | 18 | 45 | 3.2 | 6.4 | 0.00 | 4.01 | 0.00 | 96 | 1016.1 |
| 20260510120400 | 18 | 70 | 3.2 | 6.4 | 0.00 | 4.01 | 0.00 | 96 | 1016.1 |
| 20260510115630 | 18 | 64 | 3.2 | 6.4 | 0.00 | 4.06 | 0.00 | 96 | 1015.9 |
| 20260510115405 | 18 | 22 | 3.2 | 6.4 | 0.00 | 4.09 | 0.00 | 96 | 1016.0 |
| 20260510114631 | 18 | 78 | 3.2 | 6.4 | 0.00 | 4.11 | 0.00 | 96 | 1015.9 |
| 20260510114129 | 18 | 68 | 3.2 | 8.0 | 0.00 | 4.11 | 0.00 | 96 | 1015.7 |
| 20260510113629 | 18 | 75 | 3.2 | 8.0 | 0.00 | 4.11 | 0.00 | 96 | 1015.7 |
| 20260510113122 | 18 | 71 | 1.6 | 6.4 | 0.00 | 4.11 | 0.00 | 96 | 1015.5 |
| 20260510112620 | 18 | 86 | 1.6 | 6.4 | 0.00 | 4.11 | 0.00 | 96 | 1015.5 |
| 20260510112119 | 18 | 61 | 1.6 | 6.4 | 0.00 | 4.11 | 0.00 | 95 | 1015.3 |
| 20260510111617 | 18 | 74 | 4.8 | 8.0 | 0.00 | 4.11 | 0.00 | 95 | 1015.3 |
| 20260510111116 | 18 | 55 | 3.2 | 8.0 | 0.00 | 4.11 | 0.00 | 95 | 1015.1 |
| 20260510110840 | 18 | 78 | 1.6 | 6.4 | 0.00 | 4.11 | 0.00 | 95 | 1015.1 |
| 20260510110341 | 18 | 75 | 3.2 | 9.7 | 0.00 | 4.11 | 0.00 | 95 | 1015.0 |
| 20260510105610 | 18 | 78 | 3.2 | 9.7 | 0.00 | 4.11 | 0.00 | 95 | 1014.9 |
| 20260510105110 | 18 | 73 | 1.6 | 6.4 | 0.00 | 4.11 | 0.00 | 95 | 1014.9 |
| 20260510104609 | 18 | 73 | 1.6 | 9.7 | 0.00 | 4.11 | 0.00 | 95 | 1014.8 |
| 20260510104108 | 18 | 61 | 3.2 | 9.7 | 0.00 | 4.11 | 0.00 | 95 | 1014.7 |
| 20260510103603 | 18 | 77 | 3.2 | 8.0 | 0.00 | 4.11 | 0.00 | 95 | 1014.6 |
| 20260510103102 | 18 | 60 | 3.2 | 8.0 | 0.00 | 4.11 | 0.00 | 95 | 1014.5 |
| 20260510102601 | 18 | 51 | 3.2 | 8.0 | 0.00 | 4.11 | 0.00 | 95 | 1014.6 |
| 20260510102102 | 18 | 92 | 3.2 | 8.0 | 0.00 | 4.11 | 0.00 | 95 | 1014.5 |
| 20260510101602 | 18 | 78 | 3.2 | 9.7 | 0.00 | 4.11 | 0.00 | 95 | 1014.4 |
| 20260510101336 | 18 | 86 | 4.8 | 9.7 | 0.00 | 4.11 | 0.00 | 95 | 1014.3 |
| 20260510100601 | 18 | 80 | 3.2 | 9.7 | 0.00 | 4.11 | 0.00 | 95 | 1014.3 |
| 20260510100059 | 18 | 88 | 3.2 | 6.4 | 0.00 | 4.11 | 0.00 | 95 | 1014.4 |
| 20260510095556 | 18 | 71 | 3.2 | 6.4 | 0.00 | 4.11 | 0.00 | 95 | 1014.3 |
| 20260510095054 | 18 | 59 | 3.2 | 6.4 | 0.00 | 4.11 | 0.00 | 95 | 1014.2 |
| 20260510094553 | 18 | 98 | 4.8 | 6.4 | 0.00 | 4.11 | 0.00 | 95 | 1014.1 |
| 20260510094054 | 18 | 74 | 3.2 | 6.4 | 0.00 | 4.11 | 0.00 | 95 | 1014.0 |
| 20260510093547 | 18 | 101 | 3.2 | 6.4 | 0.00 | 4.11 | 0.00 | 95 | 1013.9 |
| 20260510093047 | 19 | 100 | 3.2 | 6.4 | 0.00 | 4.11 | 0.00 | 95 | 1013.8 |
| 20260510092547 | 19 | 76 | 3.2 | 6.4 | 0.00 | 4.11 | 0.00 | 95 | 1013.8 |
| 20260510092047 | 19 | 109 | 3.2 | 6.4 | 0.00 | 4.11 | 0.00 | 95 | 1013.7 |
| 20260510091547 | 19 | 96 | 1.6 | 4.8 | 0.00 | 4.11 | 0.00 | 95 | 1013.7 |
| 20260510091046 | 19 | 92 | 1.6 | 4.8 | 0.00 | 4.11 | 0.00 | 95 | 1013.7 |
| 20260510090540 | 19 | 92 | 3.2 | 6.4 | 0.00 | 4.11 | 0.00 | 95 | 1013.7 |
| 20260510090039 | 19 | 79 | 1.6 | 6.4 | 0.00 | 4.11 | 0.00 | 95 | 1013.7 |
| 20260510085537 | 19 | 99 | 1.6 | 4.8 | 0.00 | 4.11 | 0.00 | 95 | 1013.8 |
| 20260510085035 | 19 | 82 | 3.2 | 6.4 | 0.00 | 4.11 | 0.00 | 95 | 1013.8 |
| 20260510084536 | 19 | 107 | 3.2 | 6.4 | 0.00 | 4.11 | 0.00 | 95 | 1013.8 |
| 20260510084259 | 19 | 63 | 3.2 | 6.4 | 0.00 | 4.11 | 0.00 | 95 | 1013.8 |
| 20260510083527 | 19 | 93 | 3.2 | 6.4 | 0.00 | 4.11 | 0.00 | 95 | 1013.8 |
| 20260510083029 | 19 | 103 | 1.6 | 4.8 | 0.00 | 4.11 | 0.00 | 95 | 1013.8 |
| 20260510082529 | 19 | 85 | 3.2 | 4.8 | 0.00 | 4.11 | 0.00 | 95 | 1013.8 |
| 20260510082030 | 19 | 79 | 3.2 | 6.4 | 0.00 | 4.11 | 0.00 | 95 | 1013.9 |
| 20260510081530 | 19 | 100 | 1.6 | 6.4 | 0.00 | 4.11 | 0.00 | 95 | 1013.9 |
| 20260510081254 | 19 | 51 | 1.6 | 4.8 | 0.00 | 4.11 | 0.00 | 95 | 1014.0 |
| 20260510080521 | 19 | 82 | 1.6 | 4.8 | 0.00 | 4.11 | 0.00 | 95 | 1013.9 |
| 20260510080018 | 19 | 82 | 1.6 | 3.2 | 0.00 | 4.11 | 0.00 | 95 | 1013.8 |
| 20260510075517 | 19 | 58 | 3.2 | 4.8 | 0.00 | 4.11 | 0.00 | 95 | 1013.8 |
| 20260510075016 | 19 | 75 | 3.2 | 4.8 | 0.00 | 4.11 | 0.00 | 95 | 1013.7 |
| 20260510074515 | 19 | 75 | 1.6 | 4.8 | 0.00 | 4.11 | 0.00 | 95 | 1013.8 |
| 20260510074012 | 19 | 72 | 1.6 | 4.8 | 0.00 | 4.11 | 0.00 | 95 | 1013.8 |
| 20260510073513 | 19 | 14 | 0.0 | 3.2 | 0.00 | 4.11 | 0.00 | 95 | 1013.9 |
| 20260510073013 | 19 | 44 | 0.0 | 3.2 | 0.00 | 4.11 | 0.00 | 95 | 1013.7 |
| 20260510072510 | 19 | 71 | 0.0 | 3.2 | 0.00 | 4.11 | 0.00 | 95 | 1013.7 |
| 20260510072012 | 19 | 13 | 0.0 | 3.2 | 0.00 | 4.11 | 0.00 | 95 | 1013.6 |
| 20260510071735 | 19 | 13 | 0.0 | 3.2 | 0.00 | 4.11 | 0.00 | 95 | 1013.6 |
| 20260510071003 | 19 | 13 | 0.0 | 3.2 | 0.00 | 4.11 | 0.00 | 95 | 1013.5 |
| 20260510070500 | 18 | 77 | 0.0 | 3.2 | 0.00 | 4.11 | 0.00 | 95 | 1013.5 |
| 20260510065958 | 18 | 77 | 1.6 | 4.8 | 0.00 | 4.11 | 0.00 | 95 | 1013.4 |
| 20260510065500 | 18 | 77 | 1.6 | 4.8 | 0.00 | 4.11 | 0.00 | 95 | 1013.5 |
| 20260510065227 | 18 | 51 | 0.0 | 3.2 | 0.00 | 4.11 | 0.00 | 95 | 1013.5 |
| 20260510064455 | 18 | 51 | 0.0 | 3.2 | 0.00 | 4.11 | 0.00 | 95 | 1013.5 |
| 20260510063957 | 18 | 51 | 0.0 | 3.2 | 0.00 | 4.11 | 0.00 | 95 | 1013.6 |
| 20260510063450 | 18 | 51 | 0.0 | 3.2 | 0.00 | 4.11 | 0.00 | 95 | 1013.6 |
| 20260510062947 | 18 | 51 | 0.0 | 3.2 | 0.00 | 4.11 | 0.00 | 95 | 1013.6 |
| 20260510062453 | 18 | 51 | 0.0 | 3.2 | 0.00 | 4.11 | 0.00 | 95 | 1013.6 |
| 20260510061946 | 18 | 86 | 0.0 | 3.2 | 0.00 | 4.11 | 0.00 | 95 | 1013.6 |
| 20260510061445 | 18 | 86 | 0.0 | 3.2 | 0.00 | 4.11 | 0.00 | 95 | 1013.7 |
| 20260510060946 | 18 | 86 | 0.0 | 3.2 | 0.00 | 4.11 | 0.00 | 95 | 1013.8 |
| 20260510060716 | 18 | 86 | 0.0 | 3.2 | 0.00 | 4.11 | 0.00 | 94 | 1013.7 |
| 20260510055945 | 18 | 86 | 1.6 | 3.2 | 0.00 | 4.11 | 0.00 | 94 | 1013.7 |
| 20260510055446 | 18 | 86 | 0.0 | 3.2 | 0.00 | 4.11 | 0.00 | 94 | 1013.6 |
| 20260510054946 | 18 | 86 | 0.0 | 3.2 | 0.00 | 4.11 | 0.00 | 95 | 1013.6 |
| 20260510054446 | 18 | 86 | 1.6 | 3.2 | 0.00 | 4.11 | 0.00 | 94 | 1013.7 |
| 20260510053941 | 18 | 86 | 1.6 | 3.2 | 0.00 | 4.11 | 0.00 | 94 | 1013.5 |
| 20260510053441 | 18 | 23 | 1.6 | 3.2 | 0.00 | 4.11 | 0.00 | 94 | 1014.1 |
| 20260510052941 | 18 | 23 | 1.6 | 3.2 | 0.00 | 4.11 | 0.00 | 94 | 1013.6 |
| 20260510052442 | 18 | 23 | 1.6 | 3.2 | 0.00 | 4.11 | 0.00 | 94 | 1013.7 |
| 20260510051944 | 18 | 23 | 0.0 | 3.2 | 0.00 | 4.11 | 0.00 | 94 | 1013.8 |
| 20260510051442 | 18 | 17 | 0.0 | 3.2 | 0.00 | 4.11 | 0.00 | 94 | 1013.8 |
| 20260510050950 | 18 | 17 | 1.6 | 3.2 | 0.00 | 4.11 | 0.00 | 94 | 1013.6 |
| 20260510050437 | 18 | 104 | 0.0 | 3.2 | 0.00 | 4.11 | 0.00 | 93 | 1013.5 |
| 20260510045934 | 19 | 104 | 1.6 | 3.2 | 0.00 | 4.11 | 4.11 | 94 | 1013.6 |
| 20260510045708 | 19 | 104 | 1.6 | 3.2 | 0.00 | 4.11 | 4.11 | 94 | 1013.4 |
| 20260510044934 | 19 | 40 | 1.6 | 3.2 | 0.00 | 4.11 | 4.11 | 94 | 1013.5 |
| 20260510044433 | 19 | 40 | 0.0 | 3.2 | 0.00 | 4.11 | 4.11 | 94 | 1013.7 |
| 20260510043933 | 19 | 40 | 0.0 | 3.2 | 0.00 | 4.11 | 4.11 | 94 | 1013.8 |
| 20260510043432 | 19 | 40 | 0.0 | 3.2 | 0.00 | 4.11 | 4.11 | 94 | 1013.9 |
| 20260510043204 | 19 | 40 | 0.0 | 3.2 | 0.00 | 4.11 | 4.11 | 93 | 1013.9 |
| 20260510042433 | 19 | 40 | 0.0 | 3.2 | 0.00 | 4.11 | 4.11 | 93 | 1013.9 |
| 20260510041933 | 19 | 40 | 0.0 | 3.2 | 0.00 | 4.11 | 4.11 | 93 | 1014.0 |
| 20260510041434 | 19 | 40 | 0.0 | 3.2 | 0.00 | 4.11 | 4.11 | 93 | 1014.0 |
| 20260510040931 | 19 | 40 | 0.0 | 3.2 | 0.00 | 4.11 | 4.11 | 93 | 1013.9 |
| 20260510040431 | 19 | 28 | 0.0 | 3.2 | 0.00 | 4.11 | 4.11 | 93 | 1013.9 |
| 20260510035932 | 20 | 48 | 0.0 | 3.2 | 0.00 | 4.11 | 4.11 | 93 | 1013.9 |
| 20260510035430 | 20 | 120 | 0.0 | 3.2 | 0.00 | 4.11 | 4.11 | 93 | 1014.0 |
| 20260510035158 | 20 | 120 | 0.0 | 3.2 | 0.00 | 4.11 | 4.11 | 93 | 1014.0 |
| 20260510034426 | 20 | 120 | 1.6 | 9.7 | 0.00 | 4.11 | 4.11 | 93 | 1013.8 |
| 20260510033920 | 20 | 148 | 3.2 | 14.5 | 0.00 | 4.11 | 4.11 | 93 | 1013.8 |
| 20260510033417 | 20 | 159 | 3.2 | 14.5 | 0.00 | 4.11 | 4.11 | 93 | 1013.8 |
| 20260510032917 | 20 | 229 | 3.2 | 14.5 | 0.00 | 4.11 | 4.11 | 93 | 1013.7 |
| 20260510032414 | 20 | 178 | 3.2 | 14.5 | 0.00 | 4.11 | 4.11 | 93 | 1013.6 |
| 20260510031914 | 20 | 178 | 3.2 | 12.9 | 0.00 | 4.11 | 4.11 | 93 | 1013.7 |
| 20260510031408 | 20 | 151 | 3.2 | 14.5 | 0.00 | 4.11 | 4.11 | 93 | 1013.8 |
| 20260510030914 | 20 | 140 | 4.8 | 16.1 | 0.00 | 4.11 | 4.11 | 93 | 1013.6 |
| 20260510030909 | 20 | 179 | 4.8 | 16.1 | 0.00 | 4.11 | 4.11 | 93 | 1013.7 |
| 20260510025909 | 20 | 160 | 6.4 | 16.1 | 0.00 | 4.11 | 4.11 | 93 | 1013.4 |
| 20260510025406 | 20 | 155 | 6.4 | 16.1 | 0.00 | 4.11 | 4.11 | 93 | 1013.3 |
| 20260510024906 | 20 | 140 | 6.4 | 17.7 | 0.00 | 4.11 | 4.11 | 94 | 1013.4 |
| 20260510024632 | 20 | 148 | 6.4 | 17.7 | 0.00 | 4.19 | 4.11 | 94 | 1013.2 |
| 20260510023859 | 20 | 159 | 6.4 | 16.1 | 0.00 | 4.39 | 4.11 | 94 | 1013.2 |
| 20260510023636 | 20 | 200 | 6.4 | 16.1 | 0.00 | 4.42 | 4.11 | 94 | 1013.2 |
| 20260510022901 | 20 | 186 | 6.4 | 12.9 | 0.00 | 4.45 | 4.11 | 94 | 1013.5 |
| 20260510022402 | 20 | 182 | 4.8 | 14.5 | 0.00 | 4.45 | 4.11 | 94 | 1013.8 |
| 20260510021901 | 20 | 157 | 3.2 | 14.5 | 0.00 | 4.45 | 4.11 | 94 | 1013.8 |
| 20260510021355 | 20 | 166 | 4.8 | 12.9 | 0.00 | 4.45 | 4.11 | 94 | 1013.6 |
| 20260510020855 | 20 | 170 | 3.2 | 12.9 | 0.00 | 4.45 | 4.11 | 94 | 1013.4 |
| 20260510020356 | 20 | 138 | 3.2 | 9.7 | 0.00 | 4.45 | 4.11 | 94 | 1013.4 |
| 20260510015856 | 20 | 94 | 4.8 | 11.3 | 0.00 | 4.45 | 4.11 | 94 | 1013.4 |
| 20260510015626 | 20 | 163 | 4.8 | 11.3 | 0.00 | 4.45 | 4.11 | 94 | 1013.3 |
| 20260510014857 | 20 | 167 | 4.8 | 11.3 | 0.00 | 4.45 | 4.11 | 94 | 1013.4 |
| 20260510014351 | 20 | 150 | 3.2 | 11.3 | 0.00 | 4.45 | 4.11 | 94 | 1013.5 |
| 20260510013851 | 20 | 136 | 4.8 | 11.3 | 0.00 | 4.45 | 4.11 | 94 | 1013.6 |
| 20260510013349 | 20 | 146 | 4.8 | 9.7 | 0.00 | 4.45 | 4.11 | 94 | 1013.4 |
| 20260510012851 | 20 | 130 | 3.2 | 9.7 | 0.00 | 4.45 | 4.11 | 94 | 1013.4 |
| 20260510012353 | 20 | 134 | 3.2 | 12.9 | 0.00 | 4.45 | 4.11 | 94 | 1013.5 |
| 20260510012349 | 20 | 98 | 3.2 | 9.7 | 0.00 | 4.45 | 4.11 | 94 | 1013.4 |
| 20260510011347 | 20 | 129 | 3.2 | 12.9 | 0.00 | 4.45 | 4.11 | 94 | 1013.4 |
| 20260510010847 | 20 | 155 | 4.8 | 12.9 | 0.00 | 4.45 | 4.11 | 94 | 1013.3 |
| 20260510010617 | 20 | 151 | 6.4 | 12.9 | 0.00 | 4.45 | 4.11 | 94 | 1013.1 |
| 20260510005846 | 20 | 144 | 6.4 | 12.9 | 0.00 | 4.45 | 4.11 | 94 | 1013.1 |
| 20260510005345 | 20 | 150 | 8.0 | 14.5 | 0.00 | 4.45 | 4.11 | 94 | 1013.2 |
| 20260510004845 | 20 | 137 | 6.4 | 14.5 | 0.00 | 4.45 | 4.11 | 94 | 1013.2 |
| 20260510004616 | 20 | 172 | 3.2 | 9.7 | 0.00 | 4.45 | 4.11 | 94 | 1013.6 |
| 20260510003841 | 20 | 106 | 0.0 | 3.2 | 0.00 | 4.45 | 4.11 | 94 | 1013.6 |
| 20260510003342 | 20 | 106 | 0.0 | 3.2 | 0.00 | 4.45 | 4.11 | 95 | 1013.5 |
| 20260510003113 | 20 | 106 | 0.0 | 3.2 | 0.00 | 4.45 | 4.11 | 95 | 1013.4 |
| 20260510002341 | 20 | 106 | 0.0 | 3.2 | 0.00 | 4.45 | 4.11 | 95 | 1013.5 |
| 20260510001838 | 20 | 106 | 0.0 | 3.2 | 0.00 | 4.45 | 4.11 | 94 | 1013.3 |
| 20260510001340 | 20 | 106 | 1.6 | 4.8 | 0.00 | 4.45 | 4.11 | 94 | 1013.3 |
| 20260510000832 | 20 | 106 | 1.6 | 6.4 | 0.00 | 4.45 | 4.11 | 95 | 1013.1 |
| 20260510000330 | 20 | 106 | 1.6 | 6.4 | 0.00 | 4.45 | 4.11 | 95 | 1013.1 |
| 20260509235830 | 20 | 18 | 1.6 | 12.9 | 0.00 | 4.45 | 4.11 | 94 | 1013.1 |
| 20260509235327 | 20 | 83 | 3.2 | 12.9 | 0.00 | 4.45 | 4.11 | 95 | 1013.1 |
| 20260509234827 | 20 | 89 | 6.4 | 12.9 | 0.00 | 4.45 | 4.11 | 95 | 1012.8 |
| 20260509234324 | 20 | 126 | 6.4 | 12.9 | 0.00 | 4.45 | 4.11 | 95 | 1012.5 |
| 20260509233824 | 20 | 96 | 4.8 | 12.9 | 0.00 | 4.45 | 4.11 | 95 | 1012.5 |
| 20260509233555 | 20 | 159 | 6.4 | 12.9 | 0.00 | 4.45 | 4.11 | 95 | 1012.4 |
| 20260509233055 | 20 | 132 | 6.4 | 12.9 | 0.00 | 4.45 | 4.11 | 95 | 1012.3 |
| 20260509232551 | 20 | 135 | 4.8 | 12.9 | 0.00 | 4.45 | 4.11 | 95 | 1012.3 |
| 20260509231821 | 19 | 120 | 4.8 | 11.3 | 0.00 | 4.45 | 4.11 | 95 | 1012.3 |
| 20260509231316 | 19 | 136 | 3.2 | 11.3 | 0.00 | 4.45 | 4.11 | 95 | 1012.2 |
| 20260509230816 | 19 | 126 | 3.2 | 8.0 | 0.00 | 4.45 | 4.11 | 95 | 1012.2 |
| 20260509230313 | 19 | 91 | 3.2 | 9.7 | 0.00 | 4.45 | 4.11 | 95 | 1011.9 |
| 20260509230051 | 19 | 101 | 6.4 | 12.9 | 0.03 | 4.45 | 4.11 | 95 | 1011.9 |
| 20260509225812 | 19 | 92 | 4.8 | 11.3 | 0.03 | 4.45 | 4.11 | 95 | 1011.9 |
| 20260509224809 | 19 | 103 | 6.4 | 14.5 | 0.08 | 4.45 | 4.11 | 95 | 1011.5 |
| 20260509224309 | 19 | 83 | 6.4 | 14.5 | 0.20 | 4.45 | 4.11 | 95 | 1011.4 |
| 20260509223809 | 19 | 136 | 6.4 | 14.5 | 0.30 | 4.45 | 4.11 | 95 | 1011.3 |
| 20260509223544 | 19 | 107 | 6.4 | 14.5 | 0.33 | 4.45 | 4.11 | 95 | 1011.7 |
| 20260509222805 | 19 | 98 | 6.4 | 14.5 | 0.38 | 4.45 | 4.11 | 95 | 1011.8 |
| 20260509222307 | 19 | 123 | 6.4 | 14.5 | 0.43 | 4.45 | 4.11 | 95 | 1011.9 |
| 20260509221805 | 19 | 90 | 8.0 | 16.1 | 0.48 | 4.45 | 4.11 | 94 | 1011.8 |
| 20260509221305 | 19 | 92 | 9.7 | 20.9 | 0.56 | 4.47 | 4.11 | 94 | 1012.0 |
| 20260509220805 | 19 | 92 | 9.7 | 20.9 | 0.61 | 4.47 | 4.11 | 95 | 1011.9 |
| 20260509220308 | 19 | 107 | 8.0 | 14.5 | 0.64 | 4.47 | 4.11 | 95 | 1011.8 |
| 20260509220032 | 19 | 105 | 8.0 | 14.5 | 0.64 | 4.45 | 4.11 | 95 | 1012.0 |
| 20260509215305 | 19 | 107 | 8.0 | 14.5 | 0.69 | 4.45 | 4.09 | 95 | 1012.2 |
| 20260509214801 | 19 | 94 | 4.8 | 12.9 | 0.74 | 4.39 | 4.04 | 94 | 1012.3 |
| 20260509214302 | 19 | 132 | 4.8 | 11.3 | 0.71 | 4.27 | 3.91 | 95 | 1012.3 |
| 20260509213802 | 19 | 92 | 4.8 | 11.3 | 0.66 | 4.19 | 3.84 | 94 | 1012.3 |
| 20260509213302 | 19 | 165 | 4.8 | 11.3 | 0.69 | 4.17 | 3.78 | 94 | 1012.4 |
| 20260509212757 | 19 | 189 | 6.4 | 12.9 | 0.71 | 4.24 | 3.73 | 94 | 1012.7 |
| 20260509212257 | 19 | 145 | 6.4 | 14.5 | 0.71 | 4.19 | 3.68 | 94 | 1012.5 |
| 20260509212029 | 19 | 161 | 6.4 | 14.5 | 0.66 | 4.14 | 3.63 | 94 | 1012.4 |
| 20260509211257 | 19 | 114 | 4.8 | 14.5 | 0.64 | 4.06 | 3.58 | 94 | 1012.4 |
| 20260509210758 | 19 | 78 | 4.8 | 14.5 | 0.69 | 4.01 | 3.53 | 94 | 1012.3 |
| 20260509210258 | 19 | 11 | 8.0 | 16.1 | 0.79 | 3.99 | 3.48 | 94 | 1012.4 |
| 20260509205752 | 19 | 92 | 9.7 | 16.1 | 0.94 | 3.96 | 3.48 | 94 | 1012.2 |
| 20260509205252 | 19 | 69 | 9.7 | 16.1 | 1.24 | 3.91 | 3.43 | 94 | 1012.1 |
| 20260509204752 | 19 | 138 | 8.0 | 14.5 | 1.37 | 3.81 | 3.30 | 94 | 1012.5 |
| 20260509204524 | 19 | 114 | 8.0 | 14.5 | 1.47 | 3.71 | 3.23 | 94 | 1012.8 |
| 20260509203752 | 19 | 121 | 8.0 | 14.5 | 1.45 | 3.66 | 3.15 | 94 | 1012.8 |
| 20260509203252 | 19 | 128 | 6.4 | 14.5 | 1.42 | 3.58 | 3.07 | 94 | 1012.8 |
| 20260509202745 | 19 | 128 | 6.4 | 14.5 | 1.42 | 3.61 | 3.02 | 94 | 1013.0 |
| 20260509202246 | 19 | 56 | 8.0 | 19.3 | 1.60 | 3.56 | 3.00 | 94 | 1013.0 |
| 20260509201747 | 19 | 109 | 8.0 | 19.3 | 1.68 | 3.56 | 2.97 | 94 | 1013.0 |
| 20260509201247 | 19 | 117 | 4.8 | 14.5 | 1.65 | 3.51 | 2.95 | 94 | 1012.9 |
| 20260509200746 | 19 | 107 | 3.2 | 9.7 | 1.57 | 3.40 | 2.84 | 94 | 1013.1 |
| 20260509200518 | 19 | 138 | 4.8 | 11.3 | 1.52 | 3.28 | 2.72 | 94 | 1013.3 |
| 20260509195740 | 19 | 159 | 6.4 | 12.9 | 1.50 | 3.10 | 2.54 | 94 | 1013.2 |
| 20260509195246 | 19 | 112 | 0.0 | 8.0 | 1.24 | 2.51 | 1.93 | 94 | 1013.1 |
| 20260509195241 | 19 | 112 | 4.8 | 12.9 | 1.32 | 2.74 | 2.18 | 94 | 1012.9 |
| 20260509194240 | 19 | 12 | 0.0 | 8.0 | 1.22 | 2.31 | 1.73 | 94 | 1013.6 |
| 20260509193739 | 19 | 12 | 1.6 | 11.3 | 1.19 | 2.29 | 1.73 | 94 | 1013.5 |
| 20260509193240 | 19 | 65 | 6.4 | 17.7 | 1.14 | 2.24 | 1.68 | 94 | 1013.0 |
| 20260509192732 | 19 | 88 | 4.8 | 17.7 | 1.07 | 2.16 | 1.60 | 93 | 1012.4 |
| 20260509192233 | 19 | 98 | 1.6 | 12.9 | 0.86 | 1.96 | 1.40 | 93 | 1012.7 |
| 20260509192002 | 19 | 29 | 1.6 | 12.9 | 0.79 | 1.88 | 1.30 | 93 | 1013.0 |
| 20260509191232 | 19 | 100 | 4.8 | 12.9 | 0.76 | 1.91 | 1.27 | 93 | 1012.9 |
| 20260509190733 | 19 | 93 | 8.0 | 19.3 | 0.74 | 1.91 | 1.24 | 93 | 1012.7 |
| 20260509190231 | 19 | 124 | 9.7 | 19.3 | 0.64 | 1.83 | 1.17 | 92 | 1012.8 |
| 20260509185725 | 19 | 137 | 8.0 | 19.3 | 0.51 | 1.80 | 1.02 | 92 | 1012.7 |
| 20260509185454 | 20 | 119 | 8.0 | 19.3 | 0.33 | 1.68 | 0.86 | 91 | 1012.8 |
| 20260509184722 | 20 | 148 | 9.7 | 20.9 | 0.18 | 1.57 | 0.69 | 91 | 1012.9 |
| 20260509184221 | 20 | 115 | 9.7 | 20.9 | 0.00 | 1.45 | 0.51 | 91 | 1012.9 |
| 20260509183719 | 20 | 139 | 9.7 | 22.5 | 0.00 | 1.55 | 0.51 | 91 | 1013.0 |
| 20260509183219 | 20 | 119 | 11.3 | 22.5 | 0.00 | 1.57 | 0.51 | 91 | 1012.9 |
| 20260509182717 | 20 | 123 | 8.0 | 16.1 | 0.00 | 1.70 | 0.51 | 90 | 1013.1 |
| 20260509182215 | 20 | 115 | 4.8 | 12.9 | 0.00 | 1.75 | 0.51 | 90 | 1013.2 |
| 20260509181715 | 20 | 154 | 6.4 | 16.1 | 0.00 | 1.96 | 0.51 | 90 | 1013.3 |
| 20260509181213 | 20 | 167 | 8.0 | 16.1 | 0.00 | 2.08 | 0.51 | 89 | 1013.2 |
| 20260509180714 | 20 | 113 | 8.0 | 19.3 | 0.00 | 2.24 | 0.51 | 89 | 1013.1 |
| 20260509180210 | 20 | 169 | 9.7 | 19.3 | 0.00 | 2.36 | 0.51 | 89 | 1013.3 |
| 20260509175710 | 20 | 123 | 8.0 | 19.3 | 0.00 | 2.51 | 0.51 | 89 | 1013.2 |
| 20260509175208 | 20 | 108 | 8.0 | 14.5 | 0.00 | 2.95 | 0.51 | 89 | 1013.1 |
| 20260509175058 | 20 | 128 | 9.7 | 16.1 | 0.00 | 3.94 | 0.51 | 89 | 1012.8 |
| 20260509174946 | 20 | 138 | 9.7 | 16.1 | 0.00 | 3.91 | 0.51 | 89 | 1012.9 |
| 20260509173709 | 20 | 113 | 8.0 | 14.5 | 0.00 | 3.96 | 0.51 | 89 | 1012.8 |
| 20260509173202 | 20 | 122 | 6.4 | 14.5 | 0.00 | 4.04 | 0.51 | 89 | 1012.9 |
| 20260509172658 | 20 | 107 | 6.4 | 14.5 | 0.00 | 4.22 | 0.51 | 90 | 1012.8 |
| 20260509172159 | 20 | 106 | 8.0 | 14.5 | 0.00 | 4.29 | 0.51 | 89 | 1013.0 |
| 20260509171657 | 20 | 93 | 6.4 | 14.5 | 0.00 | 4.32 | 0.51 | 89 | 1012.9 |
| 20260509171157 | 20 | 94 | 4.8 | 11.3 | 0.00 | 4.78 | 0.51 | 89 | 1013.1 |
| 20260509170650 | 20 | 71 | 6.4 | 16.1 | 0.00 | 4.88 | 0.51 | 89 | 1013.1 |
| 20260509170148 | 20 | 87 | 8.0 | 20.9 | 0.00 | 4.95 | 0.51 | 89 | 1012.9 |
| 20260509165649 | 20 | 82 | 8.0 | 20.9 | 0.00 | 5.03 | 0.51 | 88 | 1012.9 |
| 20260509165151 | 20 | 113 | 8.0 | 20.9 | 0.00 | 5.08 | 0.51 | 88 | 1012.9 |
| 20260509164650 | 20 | 157 | 11.3 | 20.9 | 0.00 | 5.16 | 0.51 | 88 | 1013.0 |
| 20260509164151 | 20 | 111 | 11.3 | 19.3 | 0.00 | 5.26 | 0.51 | 88 | 1013.0 |
| 20260509163642 | 20 | 91 | 8.0 | 16.1 | 0.00 | 5.49 | 0.51 | 87 | 1012.9 |
| 20260509163144 | 21 | 89 | 8.0 | 16.1 | 0.00 | 6.48 | 0.51 | 88 | 1013.2 |
| 20260509162644 | 21 | 98 | 9.7 | 19.3 | 0.00 | 6.78 | 0.51 | 88 | 1013.3 |
| 20260509162145 | 21 | 137 | 9.7 | 19.3 | 0.00 | 6.81 | 0.51 | 88 | 1013.3 |
| 20260509161914 | 21 | 167 | 9.7 | 17.7 | 0.00 | 6.83 | 0.51 | 89 | 1013.2 |
| 20260509161414 | 21 | 46 | 9.7 | 20.9 | 0.00 | 6.86 | 0.51 | 90 | 1013.3 |
| 20260509160643 | 20 | 115 | 9.7 | 20.9 | 0.00 | 6.86 | 0.51 | 89 | 1013.4 |
| 20260509160139 | 20 | 108 | 9.7 | 16.1 | 0.00 | 6.86 | 0.51 | 89 | 1013.6 |
| 20260509155637 | 20 | 108 | 9.7 | 16.1 | 0.00 | 6.86 | 0.51 | 89 | 1013.7 |
| 20260509155138 | 20 | 125 | 9.7 | 17.7 | 0.00 | 6.86 | 0.51 | 90 | 1013.6 |
| 20260509154639 | 20 | 111 | 9.7 | 17.7 | 0.00 | 6.86 | 0.51 | 91 | 1013.4 |
| 20260509154139 | 20 | 87 | 6.4 | 14.5 | 0.00 | 6.86 | 0.51 | 91 | 1013.3 |